FW6291 Weather Reports


time (UTC)temp
C
wind
direction
speed
KPH
gust
KPH
rain 1hr
cm
rain 24hr
cm
rain mn
cm
humidity
%
barometer
mb
20260502205514 25 90 0.0 3.2 0.00 0.00 0.00 57 1011.9
20260502204513 25 105 0.0 6.4 0.00 0.00 0.00 58 1012.0
20260502203512 24 286 0.0 3.2 0.00 0.00 0.00 60 1012.1
20260502202511 24 30 0.0 3.2 0.00 0.00 0.00 59 1012.2
20260502201510 24 119 0.0 6.4 0.00 0.00 0.00 59 1012.5
20260502200509 25 135 0.0 4.8 0.00 0.00 0.00 59 1012.4
20260502195508 24 153 0.0 1.6 0.00 0.00 0.00 60 1012.6
20260502194507 23 82 1.6 1.6 0.00 0.00 0.00 61 1012.7
20260502193506 23 110 0.0 0.0 0.00 0.00 0.00 61 1012.8
20260502192505 23 75 0.0 0.0 0.00 0.00 0.00 64 1013.0
20260502191504 23 122 0.0 0.0 0.00 0.00 0.00 62 1013.3
20260502190503 22 322 0.0 0.0 0.00 0.00 0.00 62 1013.4
20260502185502 22 167 0.0 0.0 0.00 0.00 0.00 64 1013.6
20260502183500 22 229 0.0 0.0 0.00 0.00 0.00 67 1013.5
20260502182459 21 158 0.0 0.0 0.00 0.00 0.00 68 1013.7
20260502181457 21 161 0.0 0.0 0.00 0.00 0.00 71 1013.7
20260502180457 20 226 0.0 0.0 0.00 0.00 0.00 72 1014.0
20260502170451 16 257 0.0 0.0 0.00 0.00 0.00 84 1014.8
20260502163447 15 120 0.0 1.6 0.00 0.00 0.00 87 1014.8
20260502161446 15 105 0.0 1.6 0.00 0.00 0.00 87 1014.9
20260502160444 15 79 0.0 3.2 0.00 0.00 0.00 88 1014.6
20260502150438 14 117 0.0 0.0 0.00 0.00 0.00 92 1014.2
20260502130426 11 101 0.0 0.0 0.00 0.00 0.00 91 1013.6
20260502123423 11 101 0.0 0.0 0.00 0.00 0.00 91 1013.5
20260502122422 11 101 0.0 0.0 0.00 0.00 0.00 91 1013.3
20260502121421 11 101 0.0 0.0 0.00 0.00 0.00 91 1013.3
20260502120420 11 101 0.0 0.0 0.00 0.00 0.00 91 1013.3
20260502115418 11 101 0.0 0.0 0.00 0.00 0.00 91 1013.1
20260502114417 12 98 0.0 0.0 0.00 0.00 0.00 92 1012.9
20260502112415 12 98 0.0 0.0 0.00 0.00 0.00 92 1012.9
20260502111415 12 98 0.0 0.0 0.00 0.00 0.00 92 1012.9
20260502110413 12 98 0.0 0.0 0.00 0.00 0.00 92 1012.8
20260502105412 12 98 0.0 0.0 0.00 0.00 0.00 91 1012.6
20260502104411 12 98 0.0 0.0 0.00 0.00 0.00 91 1012.7
20260502102409 12 98 0.0 0.0 0.00 0.00 0.00 91 1012.7
20260502101408 12 98 0.0 0.0 0.00 0.00 0.00 91 1012.7
20260502100407 12 98 0.0 0.0 0.00 0.00 0.00 91 1012.6
20260502091402 12 98 0.0 0.0 0.00 0.00 0.00 91 1012.9
20260502090401 12 98 0.0 0.0 0.00 0.00 0.00 91 1012.8
20260502071350 13 98 0.0 0.0 0.00 0.00 0.00 89 1013.7
20260502065348 13 98 0.0 0.0 0.00 0.00 0.00 89 1013.6
20260502064347 13 98 0.0 0.0 0.00 0.00 0.00 88 1013.6
20260502063346 14 98 0.0 0.0 0.00 0.00 0.00 88 1013.5
20260502061343 14 98 0.0 0.0 0.00 0.00 0.00 87 1013.5
20260502055342 15 103 0.0 0.0 0.00 0.00 0.00 87 1013.4
20260502054340 15 103 0.0 0.0 0.00 0.00 0.00 86 1013.5
20260502052338 15 101 0.0 1.6 0.00 0.00 0.00 86 1013.5
20260502051337 15 94 0.0 1.6 0.00 0.00 0.00 86 1013.3
20260502050336 15 121 0.0 1.6 0.00 0.00 0.00 85 1013.3
20260502044334 15 98 0.0 3.2 0.00 0.00 0.00 84 1013.2
20260502043333 15 94 0.0 1.6 0.00 0.00 0.00 84 1013.0
20260502042332 16 106 0.0 1.6 0.00 0.00 0.00 84 1013.0
20260502041331 16 89 0.0 1.6 0.00 0.00 0.00 83 1012.8
20260502040330 16 115 0.0 1.6 0.00 0.00 0.00 83 1012.6
20260502035329 16 100 0.0 3.2 0.00 0.00 0.00 82 1012.4
20260502034328 16 97 0.0 1.6 0.00 0.00 0.00 82 1012.2
20260502032326 16 89 0.0 6.4 0.00 0.00 0.00 80 1011.7
20260502030324 17 122 0.0 8.0 0.00 0.00 0.00 77 1011.4
20260502024322 18 92 0.0 6.4 0.00 0.00 0.00 74 1011.3
20260502023321 18 65 0.0 4.8 0.00 0.00 0.00 72 1011.3
20260502022320 19 115 0.0 4.8 0.00 0.00 0.00 71 1011.2
20260502021319 20 109 0.0 6.4 0.00 0.00 0.00 69 1011.1
20260502020318 20 145 3.2 9.7 0.00 0.00 0.00 67 1011.1
20260502014316 21 103 0.0 4.8 0.00 0.00 0.00 65 1011.0
20260502013315 21 86 0.0 4.8 0.00 0.00 0.00 65 1011.0
20260502012314 22 82 0.0 3.2 0.00 0.00 0.00 64 1010.9
20260502011313 22 154 0.0 6.4 0.00 0.00 0.00 64 1011.0
20260502010312 22 112 3.2 8.0 0.00 0.00 0.00 62 1011.0
20260502005311 23 88 0.0 8.0 0.00 0.00 0.00 61 1010.8
20260502004310 23 87 0.0 8.0 0.00 0.00 0.00 61 1010.8
20260502003309 23 88 6.4 6.4 0.00 0.00 0.00 59 1010.8
20260502002308 24 112 0.0 3.2 0.00 0.00 0.00 57 1010.9
20260502001307 25 98 0.0 3.2 0.00 0.00 0.00 57 1011.0
20260502000306 25 204 0.0 1.6 0.00 0.00 0.00 55 1011.0
20260501235306 25 155 0.0 3.2 0.00 0.00 0.00 54 1010.9
20260501234304 26 227 0.0 1.6 0.00 0.00 0.00 53 1010.9
20260501233302 26 140 0.0 1.6 0.00 0.00 0.00 53 1010.8
20260501232305 26 84 0.0 4.8 0.00 0.00 0.00 52 1010.8
20260501230259 26 140 0.0 4.8 0.00 0.00 0.00 51 1010.8
20260501225258 26 82 0.0 0.0 0.00 0.00 0.00 51 1010.9
20260501224257 26 57 1.6 3.2 0.00 0.00 0.00 52 1011.0
20260501223256 26 93 0.0 0.0 0.00 0.00 0.00 51 1011.1
20260501222256 26 86 0.0 6.4 0.00 0.00 0.00 51 1011.2
20260501220254 27 110 0.0 1.6 0.00 0.00 0.00 49 1011.8
20260501215253 27 122 0.0 3.2 0.00 0.00 0.00 49 1011.9
20260501214251 26 202 0.0 4.8 0.00 0.00 0.00 51 1012.0
20260501213251 26 111 0.0 1.6 0.00 0.00 0.00 50 1012.1
20260501212250 26 201 0.0 3.2 0.00 0.00 0.00 51 1012.2
20260501211248 26 250 0.0 0.0 0.00 0.00 0.00 51 1012.3